Вернуться в каталог

DMSP 5D-3 F18 DEB

АктивенSSO
NORAD 36100·DEBRIS·🇺🇸 United States

Запущен Oct 18, 2009 с Vandenberg Space Force Base

Loading…

Ближайшие Пролёты (ближайшие 24 часа)

TLE

СвежийSource: Space-Track

Эпоха: Sep 14, 2026, 06:41 UTC

1 36100U 09057F   26257.27889324  .00001465  00000-0  55857-3 0  9995
2 36100  98.4830 274.4645 0011193 155.7193 204.4520 14.32279518872839

Отслеживайте DMSP 5D-3 F18 DEB в реальном времени с AllMySat

Download on the App Store